DW0224 Weather Reports


time (UTC)temp
C
wind
direction
speed
KPH
gust
KPH
rain 1hr
cm
rain 24hr
cm
rain mn
cm
humidity
%
barometer
mb
20260507183734 13 35 1.6 4.8 0.00 0.00 0.00 60 1008.8
20260507183234 14 34 1.6 4.8 0.00 0.00 0.00 60 1008.8
20260507182731 14 9 1.6 4.8 0.00 0.00 0.00 60 1008.7
20260507182232 14 51 1.6 4.8 0.00 0.00 0.00 59 1008.7
20260507181731 14 32 1.6 4.8 0.00 0.00 0.00 59 1008.7
20260507181231 14 18 1.6 6.4 0.00 0.00 0.00 59 1008.8
20260507180730 15 34 1.6 11.3 0.00 0.00 0.00 59 1008.8
20260507180231 15 26 1.6 11.3 0.00 0.00 0.00 59 1008.8
20260507175730 15 309 1.6 6.4 0.00 0.00 0.00 59 1008.8
20260507175230 15 13 1.6 4.8 0.00 0.00 0.00 58 1008.8
20260507174730 15 339 1.6 4.8 0.00 0.00 0.00 58 1008.8
20260507174230 15 0 1.6 4.8 0.00 0.00 0.00 58 1008.7
20260507173731 15 355 1.6 8.0 0.00 0.00 0.00 58 1008.7
20260507173457 15 347 1.6 8.0 0.00 0.00 0.00 58 1008.7
20260507172731 15 19 1.6 6.4 0.00 0.00 0.00 56 1008.7
20260507172230 15 53 1.6 9.7 0.00 0.00 0.00 57 1008.7
20260507171730 15 10 1.6 9.7 0.00 0.00 0.00 56 1008.7
20260507171231 16 351 1.6 4.8 0.00 0.00 0.00 55 1008.6
20260507170955 16 11 0.0 3.2 0.00 0.00 0.00 55 1008.6
20260507170231 16 23 0.0 3.2 0.00 0.00 0.00 54 1008.6
20260507165730 16 92 0.0 1.6 0.00 0.00 0.00 53 1008.6
20260507165230 16 91 0.0 3.2 0.00 0.00 0.00 53 1008.6
20260507164730 16 112 0.0 3.2 0.00 0.00 0.00 52 1008.6
20260507164458 16 355 0.0 3.2 0.00 0.00 0.00 53 1008.7
20260507163731 16 49 0.0 3.2 0.00 0.00 0.00 52 1008.7
20260507163459 16 68 0.0 3.2 0.00 0.00 0.00 50 1008.7
20260507162730 16 114 0.0 1.6 0.00 0.00 0.00 53 1008.7
20260507162454 16 177 0.0 4.8 0.00 0.00 0.00 52 1008.7
20260507161729 16 229 0.0 4.8 0.00 0.00 0.00 53 1008.7
20260507161231 16 84 0.0 3.2 0.00 0.00 0.00 53 1008.7
20260507160731 16 199 1.6 4.8 0.00 0.00 0.00 52 1008.7
20260507160231 16 240 0.0 4.8 0.00 0.00 0.00 55 1008.7
20260507155730 16 213 0.0 1.6 0.00 0.00 0.00 54 1008.7
20260507155230 16 114 0.0 3.2 0.00 0.00 0.00 53 1008.7
20260507154730 16 44 1.6 11.3 0.00 0.00 0.00 53 1008.7
20260507154500 16 84 1.6 11.3 0.00 0.00 0.00 53 1008.7
20260507153731 16 115 1.6 11.3 0.00 0.00 0.00 52 1008.7
20260507153501 16 66 0.0 6.4 0.00 0.00 0.00 51 1008.7
20260507152730 16 328 0.0 3.2 0.00 0.00 0.00 50 1008.7
20260507152230 16 101 1.6 3.2 0.00 0.00 0.00 51 1008.7
20260507151730 16 35 1.6 4.8 0.00 0.00 0.00 50 1008.7
20260507151232 17 250 1.6 4.8 0.00 0.00 0.00 52 1008.7
20260507150732 17 232 1.6 4.8 0.00 0.00 0.00 50 1008.7
20260507150231 17 144 0.0 3.2 0.00 0.00 0.00 52 1008.7
20260507150226 16 71 0.0 3.2 0.00 0.00 0.00 52 1008.7
20260507145456 16 81 0.0 3.2 0.00 0.00 0.00 52 1008.7
20260507144955 16 180 0.0 4.8 0.00 0.00 0.00 51 1008.7
20260507144459 16 252 1.6 6.4 0.00 0.00 0.00 53 1008.7
20260507143954 16 216 1.6 6.4 0.00 0.00 0.00 52 1008.7
20260507143230 16 254 0.0 4.8 0.00 0.00 0.00 49 1008.7
20260507142731 17 162 0.0 3.2 0.00 0.00 0.00 49 1008.7
20260507142230 17 46 1.6 4.8 0.00 0.00 0.00 49 1008.7
20260507141730 17 53 1.6 4.8 0.00 0.00 0.00 48 1008.7
20260507141231 17 98 1.6 4.8 0.00 0.00 0.00 48 1008.8
20260507140958 18 227 1.6 3.2 0.00 0.00 0.00 45 1008.8
20260507140231 18 300 1.6 3.2 0.00 0.00 0.00 44 1008.8
20260507135955 18 188 1.6 3.2 0.00 0.00 0.00 43 1009.0
20260507135230 18 126 0.0 3.2 0.00 0.00 0.00 48 1009.0
20260507134730 18 83 1.6 8.0 0.00 0.00 0.00 49 1009.0
20260507134230 17 240 1.6 8.0 0.00 0.00 0.00 48 1009.2
20260507133731 17 213 1.6 4.8 0.00 0.00 0.00 53 1009.2
20260507133231 16 72 1.6 4.8 0.00 0.00 0.00 55 1009.2
20260507132730 16 24 1.6 8.0 0.00 0.00 0.00 56 1009.2
20260507132230 16 321 1.6 8.0 0.00 0.00 0.00 56 1009.2
20260507131730 16 257 1.6 8.0 0.00 0.00 0.00 55 1009.2
20260507131229 16 32 1.6 8.0 0.00 0.00 0.00 57 1009.2
20260507130957 16 244 1.6 8.0 0.00 0.00 0.00 57 1009.2
20260507130231 16 163 1.6 6.4 0.00 0.00 0.00 56 1009.2
20260507125731 16 177 1.6 6.4 0.00 0.00 0.00 55 1009.2
20260507125231 16 151 1.6 4.8 0.00 0.00 0.00 55 1009.2
20260507124730 16 334 1.6 8.0 0.00 0.00 0.00 56 1009.2
20260507124230 16 261 1.6 8.0 0.00 0.00 0.00 55 1009.2
20260507123730 17 153 3.2 8.0 0.00 0.00 0.00 55 1009.2
20260507123230 17 210 1.6 8.0 0.00 0.00 0.00 54 1009.2
20260507122731 17 243 1.6 6.4 0.00 0.00 0.00 54 1009.2
20260507122231 17 0 1.6 6.4 0.00 0.00 0.00 55 1009.2
20260507121730 17 177 1.6 6.4 0.00 0.00 0.00 54 1009.2
20260507121456 16 331 1.6 6.4 0.00 0.00 0.00 55 1009.2
20260507120730 16 66 3.2 8.0 0.00 0.00 0.00 57 1009.2
20260507120224 16 74 3.2 9.7 0.00 0.00 0.00 56 1009.2
20260507115718 17 215 3.2 9.7 0.00 0.00 0.00 55 1009.2
20260507115434 17 92 3.2 8.0 0.00 0.00 0.00 55 1009.2
20260507114706 17 193 3.2 8.0 0.00 0.00 0.00 58 1009.2
20260507114206 17 234 3.2 6.4 0.00 0.00 0.00 57 1009.2
20260507113931 16 232 3.2 6.4 0.00 0.00 0.00 57 1009.2
20260507113204 16 215 3.2 6.4 0.00 0.00 0.00 58 1009.2
20260507112703 16 217 3.2 6.4 0.00 0.00 0.00 60 1009.3
20260507112203 16 209 1.6 6.4 0.00 0.00 0.00 58 1009.3
20260507111937 16 214 1.6 8.0 0.00 0.00 0.00 57 1009.3
20260507111205 16 244 1.6 8.0 0.00 0.00 0.00 64 1009.5
20260507110924 15 191 1.6 6.4 0.00 0.00 0.00 62 1009.5
20260507110203 15 169 1.6 6.4 0.00 0.00 0.00 61 1009.5
20260507105703 15 179 1.6 6.4 0.00 0.00 0.00 66 1009.7
20260507105203 15 161 1.6 6.4 0.00 0.00 0.00 66 1009.7
20260507104930 15 248 1.6 6.4 0.00 0.00 0.00 69 1009.7
20260507104204 15 146 1.6 4.8 0.00 0.00 0.00 72 1009.7
20260507103704 14 246 1.6 6.4 0.00 0.00 0.00 74 1009.7
20260507103204 14 192 1.6 6.4 0.00 0.00 0.00 67 1009.7
20260507102704 15 232 0.0 4.8 0.00 0.00 0.00 65 1009.7
20260507102202 15 197 0.0 4.8 0.00 0.00 0.00 67 1009.7
20260507101702 15 197 1.6 4.8 0.00 0.00 0.00 64 1009.7
20260507101428 15 76 1.6 6.4 0.00 0.00 0.00 64 1009.7
20260507100701 15 178 1.6 6.4 0.00 0.00 0.00 64 1009.7
20260507100201 15 225 1.6 6.4 0.00 0.00 0.00 63 1009.7
20260507095650 15 309 1.6 4.8 0.00 0.00 0.00 64 1009.7
20260507095148 15 75 1.6 6.4 0.00 0.00 0.00 66 1009.7
20260507094642 15 266 1.6 8.0 0.00 0.00 0.00 65 1009.7
20260507094138 15 75 1.6 4.8 0.00 0.00 0.00 68 1009.7
20260507093638 14 128 1.6 4.8 0.00 0.00 0.00 68 1009.7
20260507093138 14 190 1.6 4.8 0.00 0.00 0.00 69 1009.7
20260507092636 14 59 1.6 4.8 0.00 0.00 0.00 70 1009.7
20260507092400 14 55 1.6 4.8 0.00 0.00 0.00 70 1009.7
20260507091634 14 175 1.6 6.4 0.00 0.00 0.00 73 1009.7
20260507091406 14 190 3.2 8.0 0.00 0.00 0.00 72 1009.7
20260507090635 14 44 1.6 8.0 0.00 0.00 0.00 75 1009.7
20260507090134 13 105 0.0 4.8 0.00 0.00 0.00 75 1009.7
20260507085634 13 191 1.6 4.8 0.00 0.00 0.00 73 1009.7
20260507085133 13 175 1.6 4.8 0.00 0.00 0.00 74 1009.7
20260507084903 13 80 1.6 4.8 0.00 0.00 0.00 77 1009.7
20260507084132 13 56 1.6 4.8 0.00 0.00 0.00 79 1009.7
20260507083631 12 199 1.6 6.4 0.00 0.00 0.00 79 1009.7
20260507083133 12 174 1.6 6.4 0.00 0.00 0.00 79 1009.7
20260507082853 12 189 1.6 4.8 0.00 0.00 0.00 79 1009.7
20260507082132 12 175 1.6 4.8 0.00 0.00 0.00 82 1009.7
20260507082127 12 173 1.6 4.8 0.00 0.00 0.00 82 1009.7
20260507081131 12 192 1.6 4.8 0.00 0.00 0.00 84 1009.7
20260507080630 12 198 1.6 4.8 0.00 0.00 0.00 85 1009.7
20260507080359 11 234 1.6 4.8 0.00 0.00 0.00 86 1009.7
20260507075630 11 200 1.6 4.8 0.00 0.00 0.00 86 1009.7
20260507075400 11 163 0.0 3.2 0.00 0.00 0.00 86 1009.7
20260507074630 11 161 0.0 3.2 0.00 0.00 0.00 87 1009.7
20260507074131 11 175 0.0 3.2 0.00 0.00 0.00 87 1009.7
20260507073851 11 172 0.0 3.2 0.00 0.00 0.00 88 1009.7
20260507073130 11 211 0.0 3.2 0.00 0.00 0.00 88 1009.7
20260507072631 11 207 1.6 3.2 0.00 0.00 0.00 89 1009.6
20260507072131 11 161 0.0 3.2 0.00 0.00 0.00 89 1009.6
20260507071632 11 159 0.0 1.6 0.00 0.00 0.00 91 1009.6
20260507071130 11 128 0.0 1.6 0.00 0.00 0.00 94 1009.6
20260507070630 10 144 0.0 0.0 0.00 0.00 0.00 94 1009.6
20260507070130 10 142 0.0 0.0 0.00 0.00 0.00 93 1009.6
20260507065851 10 226 0.0 0.0 0.00 0.00 0.00 93 1009.4
20260507065400 10 226 0.0 0.0 0.00 0.00 0.00 93 1009.4
20260507064857 10 226 0.0 0.0 0.00 0.00 0.00 94 1009.4
20260507064358 10 226 0.0 1.6 0.00 0.00 0.00 94 1009.3
20260507063630 9 226 0.0 1.6 0.00 0.00 0.00 94 1009.3
20260507063130 9 226 0.0 1.6 0.00 0.00 0.00 94 1009.3
20260507062632 9 226 0.0 1.6 0.00 0.00 0.00 94 1009.2
20260507062131 9 232 0.0 1.6 0.00 0.00 0.00 95 1009.2
20260507061632 9 236 0.0 1.6 0.00 0.00 0.00 94 1009.2
20260507061359 9 236 0.0 0.0 0.00 0.00 0.00 94 1009.1
20260507060630 9 236 0.0 0.0 0.00 0.00 0.00 94 1009.1
20260507060131 9 236 0.0 0.0 0.00 0.00 0.00 94 1009.1
20260507055854 9 236 0.0 0.0 0.00 0.00 0.00 94 1009.1
20260507055130 8 236 0.0 0.0 0.00 0.00 0.00 94 1009.1
20260507054630 8 236 0.0 0.0 0.00 0.00 0.00 94 1009.1
20260507054359 8 236 0.0 0.0 0.00 0.00 0.00 94 1008.9
20260507053631 8 236 0.0 0.0 0.00 0.00 0.00 94 1008.9
20260507053130 8 236 0.0 0.0 0.00 0.00 0.00 94 1008.9
20260507052634 8 236 0.0 0.0 0.00 0.00 0.00 94 1008.7
20260507052132 8 236 0.0 0.0 0.00 0.00 0.00 94 1008.7
20260507051631 8 236 0.0 0.0 0.00 0.00 0.00 94 1008.7
20260507051126 8 236 0.0 0.0 0.00 0.00 0.00 94 1008.6
20260507050617 8 236 0.0 0.0 0.00 0.00 0.00 94 1008.6
20260507050114 8 236 0.0 0.0 0.00 0.00 0.00 94 1008.6
20260507045604 8 236 0.0 0.0 0.00 0.00 0.00 94 1008.5
20260507045328 8 236 0.0 0.0 0.00 0.00 0.00 94 1008.5
20260507044603 8 236 0.0 0.0 0.00 0.00 0.00 94 1008.5
20260507044102 8 236 0.0 0.0 0.00 0.00 0.00 94 1008.2
20260507043602 8 236 0.0 1.6 0.00 0.00 0.00 94 1008.2
20260507043102 8 236 0.0 1.6 0.00 0.00 0.00 94 1008.2
20260507042603 8 248 0.0 0.0 0.00 0.00 0.00 94 1008.2
20260507042327 8 248 0.0 0.0 0.00 0.00 0.00 94 1008.2
20260507041826 8 248 0.0 0.0 0.00 0.00 0.00 94 1008.2
20260507041102 8 248 0.0 0.0 0.00 0.00 0.00 94 1008.2
20260507040826 8 248 0.0 0.0 0.00 0.00 0.00 94 1008.2
20260507035601 8 248 0.0 0.0 0.00 0.00 0.00 94 1008.2
20260507035328 8 248 0.0 0.0 0.00 0.00 0.00 94 1008.2
20260507034828 8 248 0.0 0.0 0.00 0.00 0.00 94 1008.2
20260507034331 8 248 0.0 0.0 0.00 0.00 0.00 94 1008.2
20260507033603 8 248 0.0 0.0 0.00 0.00 0.00 94 1008.2
20260507033102 8 248 0.0 1.6 0.00 0.00 0.00 94 1008.2
20260507033054 8 248 0.0 1.6 0.00 0.00 0.00 93 1008.1
20260507032103 8 248 0.0 0.0 0.00 0.00 0.00 93 1008.1
20260507031829 8 248 0.0 0.0 0.00 0.00 0.00 93 1008.1
20260507031102 8 248 0.0 0.0 0.00 0.00 0.00 93 1008.1
20260507030602 8 248 0.0 0.0 0.00 0.00 0.00 93 1008.1
20260507025602 8 248 0.0 0.0 0.00 0.00 0.00 93 1008.0
20260507025104 8 248 0.0 0.0 0.00 0.00 0.00 93 1008.0
20260507024604 8 248 0.0 0.0 0.00 0.00 0.00 93 1008.0
20260507024104 8 248 0.0 0.0 0.00 0.00 0.00 93 1008.0
20260507023834 8 248 0.0 0.0 0.00 0.00 0.00 93 1008.0
20260507023103 8 248 0.0 0.0 0.00 0.00 0.00 93 1008.0
20260507022604 8 248 0.0 0.0 0.00 0.00 0.00 93 1007.7
20260507022104 8 248 0.0 0.0 0.00 0.00 0.00 93 1007.7
20260507021828 8 248 0.0 0.0 0.00 0.00 0.00 93 1007.7
20260507021329 8 248 0.0 0.0 0.00 0.00 0.00 93 1007.6
20260507020601 8 248 0.0 0.0 0.00 0.00 0.00 93 1007.6
20260507020058 8 248 0.0 0.0 0.00 0.00 0.00 93 1007.6
20260507015552 8 248 0.0 0.0 0.00 0.00 0.00 93 1007.6
20260507015315 8 248 0.0 0.0 0.00 0.00 0.00 93 1007.6
20260507014540 8 248 0.0 0.0 0.00 0.00 0.00 93 1007.6
20260507014306 8 248 0.0 1.6 0.00 0.00 0.00 93 1007.6
20260507013538 8 248 0.0 4.8 0.00 0.00 0.00 93 1007.6
20260507013036 8 248 0.0 4.8 0.00 0.00 0.00 93 1007.6
20260507012534 8 192 0.0 1.6 0.00 0.00 0.00 92 1007.6
20260507012032 8 192 0.0 1.6 0.00 0.00 0.00 92 1007.6
20260507011532 8 192 0.0 1.6 0.00 0.00 0.00 92 1007.6
20260507011031 8 192 0.0 0.0 0.00 0.00 0.00 92 1007.6
20260507010532 8 192 0.0 0.0 0.00 0.00 0.00 92 1007.6
20260507010257 8 192 0.0 0.0 0.00 0.00 0.00 92 1007.6
20260507005529 8 192 0.0 0.0 0.00 0.00 0.00 92 1007.7
20260507005030 8 192 0.0 0.0 0.00 0.00 0.00 92 1007.7
20260507004753 8 192 0.0 0.0 0.00 0.00 0.00 92 1007.7
20260507004029 8 192 0.0 0.0 0.00 0.00 0.00 92 1007.7
20260507003530 8 192 0.0 0.0 0.00 0.00 0.00 92 1007.7
20260507003256 8 192 0.0 0.0 0.00 0.00 0.00 91 1007.7
20260507002530 8 192 0.0 0.0 0.00 0.00 0.00 91 1007.6
20260507002030 8 192 0.0 0.0 0.00 0.00 0.00 91 1007.6
20260507001531 8 192 0.0 0.0 0.00 0.00 0.00 91 1007.6
20260507001031 8 192 0.0 0.0 0.00 0.00 0.00 90 1007.6
20260507001021 8 192 0.0 0.0 0.00 0.00 0.00 90 1007.6
20260507000031 8 192 0.0 0.0 0.00 0.00 0.00 90 1007.6
20260506235530 8 192 0.0 0.0 0.00 0.00 0.00 90 1007.6
20260506235026 8 192 0.0 0.0 0.00 0.00 0.00 89 1007.6
20260506234519 8 192 0.0 0.0 0.00 0.00 0.00 89 1007.6
20260506234014 8 192 0.0 0.0 0.00 0.00 0.00 89 1007.6
20260506233718 8 192 0.0 0.0 0.00 0.00 0.00 89 1007.6
20260506232513 8 192 0.0 0.0 0.00 0.00 0.00 88 1007.6
20260506232013 8 192 0.0 0.0 0.00 0.00 0.00 88 1007.6
20260506231740 8 192 0.0 0.0 0.00 0.00 0.00 87 1007.6
20260506231012 8 192 0.0 0.0 0.00 0.00 0.00 86 1007.6
20260506230512 8 192 0.0 0.0 0.00 0.00 0.00 86 1007.6
20260506230011 8 192 0.0 0.0 0.00 0.00 0.00 86 1007.6
20260506225510 8 192 0.0 0.0 0.00 0.00 0.00 85 1007.6
20260506225010 9 192 0.0 0.0 0.00 0.00 0.00 85 1007.6
20260506224509 9 192 0.0 0.0 0.00 0.00 0.00 85 1007.6
20260506224235 9 192 0.0 0.0 0.00 0.00 0.00 84 1007.5
20260506223506 9 192 0.0 0.0 0.00 0.00 0.00 83 1007.5
20260506223205 9 192 0.0 0.0 0.00 0.00 0.00 83 1007.5
20260506222005 9 192 0.0 0.0 0.00 0.00 0.00 80 1007.4
20260506221504 10 192 0.0 0.0 0.00 0.00 0.00 80 1007.4
20260506221004 10 192 0.0 1.6 0.00 0.00 0.00 79 1007.1
20260506220504 10 192 0.0 4.8 0.00 0.00 0.00 78 1007.1
20260506220003 10 188 1.6 4.8 0.00 0.00 0.00 77 1007.1
20260506215504 10 239 0.0 4.8 0.00 0.00 0.00 76 1007.0
20260506215004 10 265 0.0 3.2 0.00 0.00 0.00 76 1007.0
20260506214730 10 240 0.0 1.6 0.00 0.00 0.00 75 1007.0
20260506214005 10 240 0.0 1.6 0.00 0.00 0.00 75 1007.0
20260506213504 10 240 0.0 1.6 0.00 0.00 0.00 75 1007.0
20260506213005 10 223 0.0 1.6 0.00 0.00 0.00 74 1007.0
20260506212504 10 223 0.0 3.2 0.00 0.00 0.00 74 1006.9
20260506212003 10 217 1.6 4.8 0.00 0.00 0.00 73 1006.9
20260506211504 10 244 1.6 4.8 0.00 0.00 0.00 74 1006.9
20260506211004 10 202 0.0 3.2 0.00 0.00 0.00 73 1006.5
20260506210502 10 232 1.6 3.2 0.00 0.00 0.00 74 1006.5
20260506210004 10 284 0.0 3.2 0.00 0.00 0.00 74 1006.5
20260506205502 10 284 0.0 3.2 0.00 0.00 0.00 75 1006.5
20260506205226 10 279 0.0 3.2 0.00 0.00 0.00 75 1006.5
20260506204502 9 59 0.0 0.0 0.00 0.00 0.00 75 1006.5
20260506204003 9 244 0.0 4.8 0.00 0.00 0.00 76 1006.4
20260506203453 9 250 1.6 6.4 0.00 0.00 0.00 76 1006.4
20260506202951 9 215 0.0 6.4 0.00 0.00 0.00 76 1006.4
20260506202445 9 230 0.0 3.2 0.00 0.00 0.00 77 1006.3
20260506201939 9 184 1.6 3.2 0.00 0.00 0.00 76 1006.3
20260506201433 9 173 1.6 3.2 0.00 0.00 0.00 77 1006.3
20260506201206 9 204 0.0 3.2 0.00 0.00 0.00 78 1006.1
20260506200433 9 292 0.0 3.2 0.00 0.00 0.00 79 1006.1
20260506200200 9 93 0.0 1.6 0.00 0.00 0.00 79 1006.1
20260506195431 9 348 0.0 1.6 0.00 0.00 0.00 80 1006.0
20260506194931 9 331 0.0 1.6 0.00 0.00 0.00 80 1006.0
20260506194914 9 292 0.0 1.6 0.00 0.00 0.00 81 1006.0
20260506193932 9 219 0.0 1.6 0.00 0.00 0.00 81 1006.0
20260506193432 9 205 0.0 1.6 0.00 0.00 0.00 81 1006.0
20260506192932 9 254 0.0 0.0 0.00 0.00 0.00 81 1006.0
20260506192644 9 254 0.0 0.0 0.00 0.00 0.00 80 1006.0
20260506192404 9 254 0.0 0.0 0.00 0.00 0.00 79 1006.0
20260506191425 9 254 0.0 0.0 0.00 0.00 0.00 79 1005.7
20260506190925 9 254 0.0 0.0 0.00 0.00 0.00 79 1005.7
20260506190413 9 254 0.0 0.0 0.00 0.00 0.00 79 1005.7
20260506185911 10 254 0.0 0.0 0.00 0.00 0.00 79 1005.6
20260506185412 10 254 0.0 0.0 0.00 0.00 0.00 79 1005.6
20260506184910 10 254 0.0 0.0 0.00 0.00 0.00 79 1005.6
20260506184409 10 254 0.0 0.0 0.00 0.00 0.00 79 1005.4
20260506184133 10 254 0.0 0.0 0.00 0.00 0.00 79 1005.4